RH
23 25 25 26 27 27 29 31 32 32 33 34 34 35 34 32 31 30 30 31 33 40 43 43 44 45 45 45 43 42 40 39 37 36 35 34 34 33 32 31 31 31 30 30 29 28 29 28 24 18 13 11 10 11 15 19 20 18 20 25 30 30 25 22 22 29 39 36 32 29 26 28 30 29 30 32 38 46 51 47 36 29 25 24 25
24 26 27 28 29 30 31 33 34 35 35 35 34 33 31 29 29 28 28 29 30 36 43 45 47 47 47 47 47 46 44 42 40 39 38 37 36 36 35 35 34 33 32 32 31 30 29 29 27 21 14 12 13 13 14 18 20 19 20 23 29 30 25 21 22 39 53 48 45 41 29 26 30 31 32 34 44 59 62 53 43 37 30 26 27
26 28 29 29 30 31 33 34 35 36 36 36 35 34 32 31 31 31 30 31 31 34 40 46 49 50 50 50 49 48 47 46 43 41 40 39 39 38 38 38 37 36 35 34 33 32 31 30 28 24 17 13 14 16 15 16 19 20 20 20 24 27 26 22 24 40 54 53 56 55 41 33 31 32 36 41 51 59 57 51 45 40 33 29 28
28 30 30 31 32 33 34 35 35 36 37 35 34 33 33 33 33 33 33 32 31 31 34 42 48 50 53 55 54 53 52 50 48 46 44 43 42 42 41 40 39 39 37 37 36 34 33 31 30 26 19 14 14 18 18 17 18 20 21 20 22 25 24 23 26 37 50 55 57 53 47 45 39 37 41 44 49 50 48 46 43 38 35 32 30
30 31 32 32 33 34 35 36 36 37 38 36 35 35 36 38 37 37 36 36 35 34 35 40 47 52 57 60 60 58 58 57 56 54 50 47 46 44 43 42 41 40 39 38 37 36 35 33 31 27 21 16 15 17 19 20 20 21 23 21 21 24 24 25 27 33 48 58 57 49 45 47 45 43 43 40 40 42 42 41 39 40 40 37 33
32 32 33 34 34 35 35 36 37 38 39 38 38 39 42 44 44 43 42 40 38 37 37 38 41 48 55 60 63 63 63 61 61 60 57 53 49 45 44 42 41 41 40 39 38 37 36 34 32 29 25 19 15 16 20 23 23 22 24 24 22 22 27 32 28 29 44 54 51 44 40 42 43 43 44 44 40 38 40 42 41 42 43 40 36
33 34 35 35 35 36 36 37 38 39 40 40 41 43 46 47 47 47 45 44 40 37 36 35 36 39 44 50 53 56 57 55 55 58 57 56 54 50 47 45 42 42 41 40 40 39 38 37 34 32 29 24 18 16 18 22 24 25 26 26 25 23 28 35 29 25 37 43 40 37 36 38 43 45 48 50 50 44 40 43 43 41 42 43 40
34 36 36 36 37 37 38 39 39 41 42 42 44 47 49 51 51 50 49 49 47 44 41 39 37 37 38 39 39 40 41 40 42 44 43 46 49 49 50 48 45 44 44 43 43 42 41 39 38 35 33 29 23 17 16 21 26 28 29 28 28 26 27 30 28 26 30 33 34 37 38 39 43 48 50 53 59 58 45 39 42 42 44 46 44
36 37 38 38 39 38 39 40 41 43 44 44 46 49 53 56 56 55 55 54 53 51 48 45 44 42 38 37 36 35 35 35 35 34 33 37 40 42 46 49 46 45 45 45 45 44 43 42 40 38 36 33 28 21 18 22 27 30 32 31 30 29 28 28 29 27 27 29 33 39 44 47 50 54 57 58 62 64 55 45 45 47 48 48 49
37 38 39 39 40 40 41 42 43 45 45 48 52 56 60 61 60 61 60 57 55 52 49 47 48 49 45 43 41 39 37 35 34 33 32 36 39 40 44 47 47 46 45 45 45 45 44 43 42 41 39 36 31 25 21 22 27 31 34 35 34 33 31 31 31 29 28 30 33 38 46 52 56 58 58 59 61 62 60 54 51 54 56 54 52
38 39 40 41 41 42 42 43 46 47 48 54 60 63 64 63 61 61 59 55 52 49 49 50 51 52 51 49 47 43 39 37 35 33 33 37 41 42 45 48 49 48 46 45 45 45 44 44 44 42 40 38 35 30 24 22 26 32 37 41 40 39 36 34 35 34 32 33 34 38 42 48 54 56 55 58 60 61 62 61 58 60 62 56 53
40 41 43 43 43 43 44 45 47 48 51 57 63 64 63 60 57 58 58 56 53 50 49 52 56 59 56 53 50 46 43 41 38 37 37 39 42 43 45 47 48 49 47 46 45 45 44 44 45 43 41 41 38 35 29 25 28 34 40 44 44 44 42 39 38 38 37 36 36 38 40 44 49 53 56 61 62 60 61 63 61 60 58 54 53
41 42 44 44 44 44 45 46 48 50 53 57 59 60 59 58 58 59 60 58 56 54 53 54 59 64 64 60 58 54 51 48 45 43 43 44 46 47 47 47 47 49 49 47 45 44 43 44 45 44 43 42 41 39 33 28 32 38 42 47 49 48 48 45 41 40 41 39 38 39 42 45 47 50 55 60 62 60 59 59 58 58 55 53 56
42 44 45 44 44 45 45 48 50 51 52 53 56 59 60 61 62 62 62 59 58 58 58 58 59 62 63 63 64 63 60 56 53 50 49 49 50 50 49 48 48 49 50 50 47 43 42 43 45 44 43 44 42 40 37 33 37 44 48 52 54 53 54 53 49 46 45 44 42 42 44 46 48 50 54 59 62 60 58 58 57 57 58 58 59
43 44 44 44 45 46 48 50 51 50 50 52 56 59 61 61 62 62 62 61 61 61 61 61 62 62 62 62 62 63 64 64 61 58 56 56 55 53 52 50 49 50 52 53 50 47 44 43 44 43 43 44 43 42 39 37 41 48 53 57 58 59 58 58 57 53 51 48 46 46 46 48 50 51 54 59 63 62 60 59 57 59 63 62 60
44 44 43 45 48 50 52 52 51 49 49 52 55 57 57 56 56 56 58 61 63 63 64 64 65 65 63 61 59 60 64 65 64 64 63 62 61 59 56 54 52 53 55 55 53 50 48 45 44 43 44 44 44 44 43 42 45 51 56 59 61 62 62 62 60 57 54 52 50 50 50 50 51 54 56 59 64 65 63 60 59 61 64 63 63
45 43 44 49 52 54 54 52 50 48 48 51 53 53 53 52 52 51 53 59 61 62 63 64 65 67 67 65 64 64 64 64 63 64 65 66 67 66 62 58 55 56 58 58 56 54 52 50 47 46 45 46 46 48 47 47 50 55 58 61 63 64 65 63 60 58 57 56 55 54 53 52 53 56 58 61 64 66 65 62 60 61 63 64 68
44 45 49 54 56 56 54 50 48 48 49 51 51 48 47 49 52 52 52 54 56 58 61 65 68 71 70 69 69 68 64 63 61 61 62 64 66 67 66 63 58 57 60 63 62 60 56 54 52 50 48 47 49 52 53 53 56 60 62 64 66 67 67 64 60 60 60 60 59 58 56 56 55 57 59 62 65 68 67 63 61 63 64 65 68
45 50 56 58 57 55 53 50 49 49 49 49 47 46 45 48 50 50 52 55 58 59 61 66 72 74 72 70 70 67 63 62 61 59 61 63 65 66 67 67 63 61 62 65 66 65 61 58 56 54 51 50 52 55 58 59 60 63 66 68 70 70 68 66 64 63 63 64 65 62 59 57 55 57 59 62 66 69 68 64 62 64 66 67 68
48 56 61 60 57 53 51 50 49 48 48 47 45 45 47 50 50 50 55 61 63 62 63 69 74 75 74 72 70 67 64 64 64 62 63 64 67 69 69 67 66 66 67 69 71 68 64 61 60 58 56 54 56 59 62 63 64 65 68 71 73 73 71 68 67 67 67 68 69 68 64 59 56 56 57 61 66 69 68 65 62 64 69 71 72
53 60 62 58 53 51 51 51 49 48 49 49 49 50 51 54 56 56 61 66 67 65 65 70 72 70 70 72 72 72 71 70 69 68 68 69 70 73 73 68 68 73 75 75 74 69 65 64 63 61 60 59 61 63 65 68 68 69 71 74 76 76 73 71 70 71 71 71 72 72 69 64 61 59 57 60 65 68 68 66 64 66 71 75 77
58 62 61 56 53 54 53 51 50 52 52 52 53 55 56 57 56 53 57 64 66 65 65 68 70 68 68 72 76 75 74 75 77 77 76 73 70 74 76 72 72 80 82 79 75 69 66 67 65 64 64 64 67 69 70 72 73 73 75 78 80 78 75 73 72 72 72 73 73 72 70 67 66 64 62 62 66 69 69 66 65 67 71 75 80
63 63 59 57 56 54 51 50 53 57 57 54 52 52 55 57 54 49 54 60 60 61 64 69 74 75 75 79 81 79 77 79 83 82 76 71 69 74 79 75 77 86 86 79 73 69 69 69 68 68 68 69 73 75 76 77 77 76 78 80 82 80 76 74 74 73 73 74 76 76 72 68 69 70 67 66 69 72 71 69 67 68 71 75 81
66 62 59 57 53 49 49 52 57 59 58 56 51 49 51 54 56 53 54 57 58 61 67 73 80 83 82 82 82 82 82 81 79 76 72 70 70 74 80 81 85 90 86 78 72 71 72 72 71 72 73 76 79 81 82 82 79 79 80 81 82 81 78 76 76 75 75 75 78 80 78 73 73 75 73 69 70 74 73 71 70 71 74 77 85
68 63 58 55 51 50 54 58 62 62 59 56 53 51 49 53 62 62 58 59 63 69 73 75 78 78 76 77 78 78 80 79 77 78 79 81 81 83 86 90 93 91 83 76 72 72 75 77 77 78 80 83 85 85 87 85 82 81 81 82 83 83 81 79 79 78 77 79 81 83 84 82 79 79 75 69 69 73 73 72 73 76 78 82 88
68 60 56 53 52 56 60 63 63 61 59 58 57 53 50 54 63 65 64 69 74 78 80 78 77 77 77 79 80 81 83 83 85 89 92 93 93 95 97 97 94 88 80 76 73 75 78 81 83 84 86 89 89 89 89 86 84 83 83 85 86 85 84 83 83 82 81 83 84 86 88 89 89 85 75 69 70 73 73 72 74 77 81 85 88
63 57 54 54 57 62 66 65 61 59 60 58 55 56 59 65 70 70 74 79 78 79 84 86 87 89 90 90 91 93 93 92 94 98 99 98 97 98 99 98 93 85 80 77 76 79 82 85 88 89 90 93 93 92 90 88 86 85 86 88 88 88 87 87 87 87 86 87 88 88 89 90 95 92 79 73 77 78 75 74 74 78 82 87 90
62 58 56 58 65 69 68 63 58 57 57 54 56 65 72 74 74 78 85 86 81 82 90 95 96 97 98 99 98 99 98 96 96 95 92 90 92 97 99 97 93 87 84 83 82 85 89 91 93 93 93 96 96 95 93 90 87 86 89 90 91 91 90 90 91 91 92 93 92 92 92 91 94 96 87 81 83 84 81 77 77 81 85 90 93
64 60 61 67 72 71 66 60 57 56 59 62 68 73 74 72 76 86 92 87 81 85 91 95 97 98 100 100 99 101 101 97 94 89 85 87 93 99 101 100 97 92 88 87 88 92 97 98 97 97 97 98 98 97 94 90 87 87 90 93 93 92 93 94 96 97 98 98 95 93 93 92 92 95 95 89 86 88 86 82 83 89 92 92 91
64 63 69 73 72 67 61 58 61 69 75 76 72 68 71 80 90 97 93 81 78 85 92 96 99 100 100 100 100 99 93 88 90 92 93 96 99 100 100 101 101 95 87 86 91 97 100 101 101 100 100 100 99 97 94 90 90 92 94 96 94 93 97 99 100 101 101 100 98 94 92 93 94 97 98 92 88 89 89 89 94 97 96 91 88
66 70 74 73 68 63 61 63 71 79 81 75 70 72 83 95 100 93 83 79 86 94 97 98 100 100 100 101 100 95 88 88 91 88 83 84 92 99 101 100 101 99 92 88 91 96 99 100 101 101 101 102 101 98 95 93 95 98 99 98 96 96 100 101 100 101 102 101 101 97 90 90 93 96 94 89 88 91 92 96 100 100 96 93 92
72 74 74 72 65 59 63 73 78 79 75 72 78 89 99 101 92 77 73 84 96 100 100 101 101 100 100 99 97 93 91 90 85 78 74 77 84 95 101 101 100 101 99 93 89 93 99 100 100 101 101 102 102 99 96 97 100 102 100 99 99 99 100 100 100 100 101 101 101 100 95 88 85 86 86 83 85 91 95 98 101 100 98 97 94
74 74 74 72 66 62 66 71 76 78 77 80 91 101 102 91 72 62 74 92 100 100 98 94 90 88 89 89 85 80 77 78 80 86 92 90 87 90 98 102 101 100 102 98 90 92 99 101 100 100 101 102 102 99 98 101 102 101 100 100 100 100 100 99 100 100 99 99 98 98 97 91 84 82 82 82 85 91 97 100 101 101 100 99 97
76 76 73 65 61 64 67 72 79 83 83 92 102 99 86 72 65 74 91 100 99 95 86 77 72 73 77 81 81 79 81 86 93 100 103 98 94 94 98 101 101 99 101 101 97 96 100 100 100 100 101 102 102 99 99 101 102 100 100 100 100 100 100 100 100 100 100 100 98 97 96 94 91 84 81 85 88 93 99 101 100 101 100 99 100
77 73 66 60 61 64 69 79 87 87 89 99 98 83 68 67 79 95 101 96 92 85 80 81 83 79 78 81 87 92 97 99 100 101 101 101 100 100 100 101 100 99 100 101 100 100 100 100 100 100 100 102 101 98 97 99 101 100 100 99 100 100 100 100 100 100 100 100 100 100 97 95 94 89 84 87 91 95 99 101 100 100 99 98 98
75 66 60 65 70 71 78 88 90 90 93 92 83 74 75 84 95 102 99 92 88 83 85 95 97 88 83 86 94 100 102 102 102 101 101 101 101 100 100 100 99 99 100 100 100 100 100 100 101 100 100 102 99 96 96 98 100 100 99 99 100 100 100 100 100 100 100 99 98 100 97 94 95 94 92 92 95 97 100 101 100 99 97 97 92
73 65 64 74 78 77 86 95 96 96 91 82 78 82 91 97 100 100 97 92 91 93 97 102 101 96 93 94 99 103 102 102 102 100 100 100 100 100 100 99 98 99 100 100 100 100 100 100 101 99 100 102 99 94 96 99 101 100 99 100 100 100 100 100 100 100 100 99 96 97 97 94 92 94 96 98 99 100 100 100 100 99 99 97 88
73 65 66 78 85 86 95 100 97 92 85 81 86 91 96 100 101 99 95 93 96 100 102 102 101 102 100 98 100 103 103 102 101 100 102 101 100 101 101 99 100 100 100 100 99 100 100 100 100 100 100 102 99 96 98 101 100 100 100 100 100 100 100 100 100 100 100 99 98 98 98 96 91 91 96 100 101 100 99 99 99 99 101 95 83
73 66 68 83 90 91 97 95 86 82 80 79 85 93 99 102 101 98 96 97 101 102 101 102 102 101 102 101 102 103 103 102 101 101 102 100 100 101 100 99 100 100 100 100 99 100 100 100 100 100 100 102 101 98 100 101 101 101 101 100 100 100 100 100 100 100 99 100 100 99 100 99 95 94 98 100 101 100 98 97 98 99 97 86 76
67 61 66 80 87 89 90 82 73 75 75 71 80 96 103 101 98 95 95 100 103 101 100 102 101 100 102 101 102 105 103 102 102 103 102 101 100 101 100 100 101 100 100 100 99 100 100 100 100 100 100 101 101 100 100 101 101 102 101 100 100 100 100 100 100 100 99 99 100 99 98 98 98 99 100 101 101 100 98 97 96 95 90 78 73
64 57 60 70 78 85 86 78 72 74 70 66 79 96 101 98 95 93 96 103 104 101 100 100 100 100 101 99 101 104 104 103 103 103 102 100 99 100 100 101 101 100 100 100 100 100 100 100 100 100 100 102 102 101 101 102 102 102 101 101 100 100 100 100 100 100 100 99 99 97 91 89 96 100 101 101 99 96 98 100 96 91 84 75 74
55 55 63 73 78 80 82 81 80 78 70 69 82 95 100 98 93 93 101 105 102 100 101 101 101 100 99 98 100 101 103 104 103 101 101 100 98 99 101 101 100 100 100 100 100 100 100 100 100 100 100 102 102 101 101 102 101 101 100 101 101 100 100 101 100 99 99 98 97 96 90 89 95 98 99 102 98 88 92 101 98 90 84 78 76
56 62 70 83 88 83 84 89 86 78 71 72 85 97 101 98 94 96 102 103 101 102 102 101 101 100 98 98 98 99 101 102 101 100 100 100 99 100 101 101 100 100 100 100 100 100 100 100 100 100 101 102 102 102 102 101 98 97 98 100 101 100 100 100 99 97 95 92 90 91 93 96 100 101 101 102 95 85 90 100 97 91 91 90 87
63 69 73 87 92 86 88 93 85 76 71 73 86 98 99 95 95 98 100 101 101 101 100 99 99 98 97 96 97 99 100 100 100 100 100 100 100 100 101 100 100 100 100 100 100 100 100 100 100 100 101 102 103 102 101 98 96 96 98 100 101 100 100 99 98 94 91 90 91 91 94 98 100 99 97 94 90 89 95 100 98 97 99 100 100
67 66 69 83 88 84 87 86 78 74 74 75 87 99 98 94 95 98 102 104 102 99 98 97 97 96 95 94 97 99 100 100 100 100 100 100 100 100 101 100 99 100 100 100 100 100 100 100 100 100 100 101 103 102 99 99 99 99 100 102 101 100 100 99 97 92 88 91 97 98 98 100 99 97 96 96 95 97 100 100 100 101 100 98 97
67 61 67 77 81 81 82 79 73 73 75 79 90 100 100 97 96 98 103 104 101 99 97 95 94 94 92 93 98 100 100 100 100 99 101 102 101 101 101 100 99 100 100 99 100 100 100 100 100 100 100 101 102 102 100 100 102 101 102 103 101 100 100 100 99 94 86 88 98 102 100 101 98 93 95 99 100 99 100 100 99 96 92 90 91
63 62 70 78 81 81 79 76 73 73 76 82 89 95 99 99 98 100 102 102 101 101 97 93 93 93 91 95 100 100 99 100 99 99 101 102 100 100 101 100 100 100 100 100 100 99 100 101 100 100 101 101 101 102 101 101 102 101 102 103 101 100 100 99 101 99 91 89 97 101 100 100 96 89 88 92 93 94 95 95 93 89 88 91 93
57 63 73 82 86 84 81 78 76 75 79 84 87 91 95 97 99 101 103 102 102 101 96 92 92 91 93 98 100 100 100 100 99 99 101 101 102 102 100 100 100 100 99 100 101 100 100 101 100 100 101 101 101 101 101 100 100 100 100 101 100 100 100 99 100 101 98 96 99 100 99 99 99 95 92 91 90 92 94 94 93 94 95 98 99
58 68 81 89 89 83 81 80 77 78 83 86 88 91 93 95 100 103 103 103 103 100 95 92 91 92 97 100 100 100 100 100 100 100 99 99 102 103 102 100 99 100 100 100 100 100 100 100 100 101 101 100 100 101 101 100 100 100 100 100 99 99 100 100 100 100 99 99 101 100 99 100 100 99 99 98 96 97 99 100 100 100 99 100 99
62 72 82 88 87 83 82 80 77 82 89 89 89 90 91 94 100 102 102 104 104 100 96 93 93 96 100 101 100 100 100 100 100 101 99 98 97 97 101 103 100 99 101 100 100 100 100 99 100 102 101 100 100 100 100 100 99 99 100 99 99 98 98 99 100 100 100 100 100 100 101 100 99 98 97 96 95 94 93 95 97 99 100 100 98
64 70 75 77 77 79 80 79 82 88 92 91 90 90 90 91 96 100 102 102 102 102 100 97 96 98 100 100 100 100 100 100 100 100 100 100 96 91 93 99 102 101 100 100 100 100 100 100 100 100 100 99 97 97 98 100 100 100 100 100 100 100 99 96 96 98 100 98 97 96 96 95 94 95 95 95 96 95 93 93 93 94 95 96 96
Wind_Speed
15 15 14 15 16 16 16 18 18 19 20 20 19 21 22 23 24 25 26 27 27 26 27 27 28 28 29 30 31 32 32 34 35 36 37 38 39 39 41 42 43 43 42 41 39 38 36 35 34 32 30 29 29 28 28 28 27 26 26 25 25 26 26 24 22 20 19 21 21 21 21 21 19 15 14 15 15 12 12 15 16 18 20 20 20
14 13 13 14 13 12 13 15 15 16 18 18 19 22 23 24 26 28 29 30 29 27 26 27 27 28 29 29 30 31 31 32 34 34 35 37 38 39 40 42 43 44 43 43 42 40 39 37 36 34 31 29 29 29 28 28 28 27 26 26 26 27 26 24 21 18 18 20 20 22 22 18 14 13 12 13 13 11 11 14 17 20 21 19 20
12 12 13 13 11 9 10 10 11 13 14 15 18 21 23 26 28 30 32 32 31 29 26 26 26 26 28 29 29 30 30 30 31 32 34 36 38 39 40 41 42 43 43 44 43 42 41 39 37 35 33 30 29 29 29 29 29 28 27 28 27 27 27 24 21 19 19 19 18 19 18 15 14 11 6 8 10 11 13 14 17 20 20 19 20
12 12 12 11 10 9 9 9 11 11 11 13 19 22 24 27 29 31 33 33 32 30 27 26 26 26 26 27 27 29 30 29 29 30 32 35 37 39 40 40 40 41 42 42 43 43 42 40 39 37 34 31 30 30 30 30 29 29 28 28 28 28 27 25 21 20 20 18 15 14 13 13 12 7 7 12 13 14 15 16 17 20 20 20 20
11 11 11 11 11 11 9 9 10 10 9 14 20 23 25 27 29 31 33 33 32 30 27 25 25 25 26 27 27 28 29 30 31 31 31 32 35 36 38 39 39 40 40 41 41 41 41 40 39 38 35 33 31 31 32 31 30 30 29 29 29 29 27 25 22 21 21 20 19 17 14 11 10 9 11 13 13 15 16 16 17 18 21 21 21
11 11 12 12 11 11 10 10 11 9 9 14 20 22 24 27 29 31 32 32 31 30 29 27 26 25 25 26 27 28 29 30 31 32 32 32 34 35 36 37 39 40 40 40 40 40 40 39 38 38 37 35 33 32 33 33 32 31 30 30 30 29 27 26 25 22 22 23 24 24 20 16 16 16 16 14 14 15 15 15 16 17 20 22 22
11 11 13 13 13 13 12 12 12 10 10 16 20 22 24 27 29 31 31 30 30 31 30 30 28 26 25 25 25 26 27 28 28 29 30 31 32 33 35 36 38 40 40 40 40 40 40 39 39 39 39 38 35 34 34 34 33 32 31 31 31 29 28 29 28 24 24 25 24 25 24 22 22 21 18 16 17 19 17 15 17 18 19 21 22
11 13 15 15 15 15 14 14 13 11 13 17 21 24 26 28 30 31 29 27 27 29 29 29 30 29 28 26 26 25 25 27 26 26 28 28 29 31 32 35 37 39 40 41 41 41 41 40 41 41 41 40 38 36 35 34 34 34 33 32 32 31 30 31 30 26 26 26 24 24 24 23 23 21 20 18 18 21 23 21 19 17 16 18 21
12 15 17 16 16 16 15 14 13 11 14 19 24 26 28 29 31 31 28 25 25 26 27 28 28 28 29 29 29 28 28 28 28 28 28 28 29 30 30 32 35 38 40 41 42 42 43 42 41 41 42 42 40 38 36 35 35 35 35 34 34 33 32 32 32 29 28 27 24 23 22 21 22 22 20 19 19 22 25 24 20 17 17 18 19
14 18 18 16 16 16 16 14 12 11 15 22 26 26 28 29 29 29 27 27 27 27 29 29 27 26 28 29 30 31 31 31 31 31 31 30 30 30 30 31 34 37 39 40 41 43 44 43 42 42 42 41 41 40 37 35 35 36 36 35 35 35 34 34 33 31 29 28 26 25 23 22 22 23 22 21 21 21 23 24 22 18 18 18 18
16 20 18 17 17 17 17 15 12 12 17 24 24 24 27 27 28 28 27 28 30 30 32 32 29 26 26 27 29 31 32 32 33 34 34 32 31 31 31 31 33 36 39 40 41 42 44 44 42 41 41 41 41 41 39 37 36 36 36 36 36 36 35 35 34 33 30 30 29 28 27 26 25 25 23 22 20 20 22 23 21 18 18 21 23
19 22 20 19 19 20 19 16 14 15 21 25 24 27 30 31 32 31 28 30 30 30 33 35 32 29 28 27 28 29 31 32 34 35 35 34 34 34 33 33 33 35 38 40 41 42 43 44 42 41 41 42 42 42 41 38 36 35 36 37 37 37 37 36 36 35 33 32 31 30 29 29 28 26 24 21 20 20 21 22 22 21 23 26 25
20 22 20 20 21 22 20 18 17 19 24 27 29 33 34 35 36 33 33 33 30 29 34 35 33 32 31 30 29 29 31 32 34 35 35 35 35 36 36 36 35 35 37 40 42 42 43 44 43 43 43 43 42 42 41 39 36 35 35 36 37 37 37 38 37 36 34 33 32 31 30 29 28 28 26 25 23 23 23 25 25 24 25 27 26
21 21 21 22 23 23 21 19 20 24 28 31 33 35 36 37 36 35 36 34 31 33 36 35 33 33 33 32 31 31 31 31 33 34 35 35 36 36 37 38 37 36 36 38 40 42 43 44 44 44 45 43 42 42 41 39 37 35 35 35 36 36 37 37 37 37 35 34 33 32 31 30 28 28 27 27 26 25 25 26 25 23 24 25 25
23 22 24 26 24 22 20 20 25 30 33 34 34 35 35 36 36 36 37 36 36 37 37 35 35 36 35 34 33 33 32 32 33 33 33 35 36 36 37 39 38 37 35 34 37 40 43 45 45 45 45 44 43 42 41 39 37 35 34 34 35 35 36 37 37 37 36 35 34 33 32 30 28 28 28 28 26 26 26 25 23 21 22 24 25
22 25 28 27 23 20 21 25 30 33 34 35 35 36 36 37 37 37 38 38 38 38 37 36 37 37 36 35 34 33 32 33 34 34 34 34 34 35 37 38 37 35 34 33 34 38 41 44 45 45 44 43 43 41 40 39 37 35 34 34 34 35 35 36 36 36 36 36 34 33 33 31 28 27 28 27 26 26 26 25 23 22 21 23 23
24 27 26 22 20 21 25 28 31 34 35 35 35 37 38 39 39 39 39 38 38 39 38 38 39 37 35 36 36 34 34 35 36 37 37 35 35 35 36 36 36 34 32 32 33 36 39 42 44 45 43 42 42 41 40 39 37 35 34 34 35 35 35 35 35 35 35 35 35 34 33 31 29 27 28 28 27 27 26 26 25 23 22 21 21
26 25 21 19 21 25 28 30 33 35 36 35 37 39 41 40 39 39 39 39 39 40 41 41 40 38 38 39 38 38 39 38 37 38 37 37 38 38 36 35 35 34 33 33 34 36 38 39 41 43 43 42 41 40 39 38 36 35 34 34 35 35 35 35 35 35 35 35 35 35 33 32 29 28 28 28 27 27 27 27 26 25 24 23 23
27 22 20 24 27 28 29 32 35 36 35 36 39 41 41 40 38 39 40 40 40 41 41 41 39 39 39 38 38 41 41 39 38 38 37 39 41 40 36 35 34 34 34 35 36 36 37 38 39 41 41 41 40 39 39 38 37 36 35 34 35 35 35 35 35 35 34 34 35 35 34 32 30 29 28 27 27 27 27 27 27 26 25 25 24
25 22 25 28 29 29 30 33 35 36 36 39 42 42 41 40 40 41 41 40 41 41 40 39 39 40 39 39 40 41 39 37 38 40 40 41 42 41 39 37 34 33 35 37 38 38 38 38 38 39 40 41 41 40 39 38 37 36 35 35 35 34 34 35 35 35 35 34 34 35 34 33 31 30 29 27 27 27 27 27 27 26 25 24 23
22 24 28 28 28 29 31 33 35 36 38 41 42 41 40 41 42 42 41 42 42 42 40 40 41 41 40 40 40 38 38 39 40 41 42 42 43 43 41 38 34 33 35 37 39 39 39 38 38 39 39 40 40 41 40 39 38 37 35 35 35 34 33 34 34 35 35 35 35 36 35 34 32 31 30 28 27 26 27 27 27 26 25 24 23
23 27 28 27 28 30 33 35 35 37 40 42 42 42 42 43 43 43 43 42 42 41 41 41 42 42 41 40 39 39 41 42 42 42 42 42 42 41 39 36 33 33 35 37 38 38 38 38 38 38 39 39 39 40 40 39 38 37 35 34 34 34 33 33 33 34 34 34 35 35 35 34 33 32 31 29 28 27 27 27 27 27 26 25 23
24 26 25 26 29 32 35 36 35 38 41 43 44 45 45 45 44 44 43 42 42 42 41 41 41 41 41 40 40 42 43 43 43 43 42 42 41 39 38 37 35 35 36 36 35 36 37 38 38 38 37 38 38 38 39 39 38 37 34 34 34 33 32 32 33 33 32 32 32 33 33 33 33 33 32 30 29 28 28 27 27 26 26 24 20
23 24 25 29 33 34 35 35 36 41 44 45 47 47 46 46 45 43 42 42 42 41 40 40 39 39 40 40 41 42 42 42 41 41 41 41 40 38 38 38 37 37 36 34 34 34 35 37 38 38 36 37 38 37 38 38 37 36 34 33 33 33 32 32 32 33 32 31 31 31 31 31 31 33 33 31 30 29 29 29 28 26 25 22 18
23 26 29 32 34 34 34 35 39 43 45 47 48 48 47 46 42 40 41 42 41 39 38 39 39 40 41 41 40 40 40 40 40 40 41 41 39 39 39 39 38 37 35 33 34 34 34 36 37 37 36 36 37 37 37 37 36 35 33 32 32 32 32 32 32 32 32 32 31 31 30 30 31 32 32 31 31 31 30 29 29 28 26 23 21
26 30 32 34 35 34 34 37 42 45 45 47 48 48 47 45 41 41 41 40 39 38 38 39 40 41 41 40 40 39 39 39 40 40 39 38 39 39 40 39 38 37 35 34 34 33 34 35 35 35 35 35 35 36 37 37 36 35 33 32 32 32 31 32 32 32 32 32 32 32 31 30 30 31 31 30 30 30 30 29 29 28 26 24 23
28 30 33 35 34 34 37 41 44 45 45 46 47 46 45 43 43 44 40 37 39 40 40 41 40 39 39 38 38 37 36 37 37 36 36 38 39 39 39 38 38 37 35 34 34 34 34 35 34 33 34 34 33 34 36 36 36 34 33 32 32 32 32 32 33 33 33 33 33 33 32 32 32 32 31 30 29 28 29 28 27 25 23 22 22
28 32 35 35 34 36 41 44 45 45 45 46 46 44 43 42 43 42 39 38 41 42 41 40 39 38 37 36 35 34 35 36 38 40 42 45 45 41 39 37 36 35 33 33 34 35 34 34 33 33 33 33 33 34 34 35 35 33 32 32 32 32 33 33 33 33 33 34 33 32 32 32 33 33 33 31 29 28 27 27 26 23 21 22 22
30 35 35 33 35 40 44 45 46 45 45 46 45 44 44 44 42 39 38 42 44 43 41 39 38 37 36 36 35 36 37 41 43 44 45 46 44 39 35 33 33 33 33 34 35 35 34 34 32 32 32 32 33 34 35 35 35 34 32 31 31 31 32 33 33 33 33 33 33 32 31 31 32 33 33 32 29 28 28 27 25 23 21 22 22
33 35 33 35 40 43 45 46 45 44 43 44 45 45 45 43 40 38 42 45 45 41 39 38 38 36 37 39 40 40 43 42 40 38 39 39 37 33 32 33 34 35 35 35 34 34 34 33 32 31 31 31 32 34 34 35 34 33 32 30 30 31 32 32 32 31 31 32 31 31 30 30 31 31 32 31 29 28 27 27 24 22 21 21 21
34 34 35 40 44 46 46 45 43 42 42 43 46 47 43 38 38 42 47 46 42 39 38 38 38 37 39 42 44 46 47 42 40 42 44 44 43 40 37 37 38 37 37 36 34 33 33 33 32 32 32 32 32 33 33 33 31 29 28 28 29 30 31 32 31 30 30 29 28 28 27 28 30 31 32 31 29 28 27 26 24 22 20 20 21
36 38 41 45 47 47 45 43 43 43 44 46 47 44 39 38 43 49 49 44 39 37 37 37 38 39 42 46 49 52 53 51 52 54 51 48 48 47 45 43 41 40 38 37 35 34 33 33 31 32 32 32 32 32 32 32 29 26 26 28 29 29 30 31 30 30 29 27 26 26 25 25 27 30 31 30 29 29 28 26 24 22 21 20 21
38 41 43 44 45 45 43 42 43 43 45 46 42 38 38 43 50 50 45 41 38 36 37 41 45 48 51 53 54 55 54 53 51 48 45 45 45 45 45 44 43 41 40 38 36 33 32 32 31 31 32 32 31 32 31 30 29 25 24 28 32 30 29 29 28 27 26 26 26 26 25 25 25 25 27 28 28 29 28 26 24 23 22 22 21
38 41 43 44 43 43 43 43 42 43 45 42 37 37 43 47 47 44 39 37 38 42 47 50 51 51 52 52 53 52 51 49 44 42 44 46 44 40 39 40 41 41 40 38 35 32 30 31 31 31 31 30 30 30 30 29 28 25 23 26 30 31 29 28 26 24 24 23 22 23 23 24 25 24 24 26 28 29 28 27 27 26 25 24 24
38 41 43 43 43 43 45 43 42 43 44 40 39 44 47 47 43 37 35 38 44 49 51 50 50 50 50 49 49 48 48 47 44 43 44 44 41 38 38 39 39 37 36 36 34 31 28 29 30 30 30 29 28 27 29 29 27 24 22 23 26 29 29 29 27 25 24 23 21 21 22 23 24 23 22 24 27 28 28 28 28 27 26 26 25
39 41 41 40 41 42 41 40 42 43 42 42 44 46 46 44 38 33 37 44 48 49 49 48 50 51 50 47 46 46 47 46 45 44 43 42 40 38 38 39 38 35 33 34 33 30 27 27 28 29 29 28 27 25 26 26 24 22 22 23 25 27 29 29 28 27 26 24 22 22 22 23 23 22 22 23 25 28 28 29 29 27 26 26 26
40 40 37 36 38 39 36 35 38 39 40 43 45 44 43 39 34 36 44 49 48 47 48 49 50 51 50 48 47 48 49 48 47 46 45 42 39 37 36 34 34 33 31 31 31 29 26 25 26 28 28 27 25 23 23 23 22 21 22 24 27 30 30 30 29 28 26 24 23 22 22 23 22 22 23 21 22 25 28 29 29 26 25 25 24
40 39 38 35 36 36 35 34 37 39 41 43 43 42 40 36 35 43 50 50 48 48 49 50 51 51 51 50 49 49 49 49 48 47 45 42 38 36 33 31 31 32 31 30 29 26 25 24 25 25 26 25 23 21 21 21 20 20 22 24 27 29 31 31 30 28 25 23 21 20 20 21 20 21 23 22 21 24 28 30 28 25 22 21 20
37 38 38 37 36 36 35 37 40 42 44 44 42 40 37 35 40 48 52 49 48 50 51 52 52 51 51 50 50 50 49 49 48 46 43 39 36 35 32 31 32 32 31 29 26 24 24 24 24 24 24 23 22 21 20 19 19 19 21 24 26 28 29 29 28 27 25 23 21 19 19 19 19 19 21 21 21 24 27 28 26 22 21 19 17
39 40 39 38 38 38 38 41 43 45 46 45 43 39 36 38 45 51 51 48 48 50 51 51 51 51 51 51 50 49 49 48 46 43 39 35 34 34 33 33 34 31 28 27 24 22 23 23 23 24 24 22 21 20 18 17 17 18 19 22 25 28 28 27 26 25 26 26 25 25 23 21 21 21 21 21 22 25 28 28 24 23 23 19 14
39 40 40 40 40 38 39 41 43 46 47 46 43 40 39 42 48 52 50 48 49 50 51 51 51 52 51 50 49 48 47 45 43 40 37 34 33 33 33 34 33 27 25 25 22 21 22 22 23 24 23 22 20 18 16 15 15 17 18 20 24 27 27 26 24 23 24 25 25 26 23 19 21 24 24 23 24 26 28 29 27 26 25 19 13
40 40 39 40 40 41 41 41 42 46 47 45 43 41 41 45 50 51 50 49 50 50 51 52 52 52 51 50 48 46 44 42 40 38 37 36 34 33 33 34 30 25 24 24 22 21 21 22 23 23 23 21 19 17 16 15 15 16 17 18 22 25 24 23 24 23 23 22 21 20 16 12 15 22 24 25 26 26 26 28 29 27 23 18 15
41 41 40 39 39 42 42 41 43 47 46 44 42 41 42 46 50 50 50 50 50 51 52 53 52 51 51 49 46 44 42 40 39 38 38 38 36 32 32 33 29 25 24 23 22 21 22 23 23 23 22 21 18 16 16 15 15 16 16 17 20 22 21 20 21 22 21 19 16 15 13 10 12 18 22 25 26 26 25 27 27 25 21 16 14
40 42 41 39 39 42 41 41 44 46 45 43 42 42 44 47 49 49 50 51 51 52 53 53 52 51 50 47 45 43 41 39 40 39 38 37 35 32 32 32 29 25 24 23 22 22 22 22 23 22 20 19 17 15 14 14 13 13 14 16 18 20 20 19 16 15 15 15 12 11 12 11 12 16 19 22 24 23 24 26 25 23 20 16 14
41 43 41 39 41 42 42 43 44 45 44 43 42 42 46 48 49 49 51 52 52 53 53 53 52 50 49 46 45 43 41 40 40 39 37 37 35 31 31 31 28 25 24 23 22 21 21 21 20 20 18 16 15 13 11 10 10 10 11 14 17 18 20 19 15 10 10 14 12 10 10 10 13 15 16 18 20 20 21 22 22 22 20 19 19
42 43 40 40 42 42 44 46 45 44 43 42 42 42 45 48 49 49 51 51 52 53 53 52 51 49 47 46 45 44 43 41 40 38 37 36 33 30 31 31 27 24 24 22 21 20 20 20 20 18 17 14 12 10 8 5 6 8 9 12 17 17 17 19 18 13 10 11 11 10 10 10 12 15 16 15 15 17 18 19 20 21 22 21 21
41 40 39 40 42 43 46 46 45 44 43 42 43 43 44 46 47 49 50 51 51 52 51 50 49 48 46 45 44 44 44 42 39 38 36 35 32 31 31 30 25 23 22 22 21 20 19 19 18 16 14 11 8 6 3 1 1 2 3 7 14 17 16 16 17 17 15 13 11 11 12 13 14 16 17 16 15 16 17 18 19 21 21 21 20
39 38 37 38 40 43 45 44 44 44 43 43 44 44 44 45 46 48 50 51 51 50 49 48 47 46 45 44 43 44 44 42 39 37 36 36 34 31 30 28 25 22 21 21 20 18 16 15 15 13 9 5 4 4 3 3 3 3 3 1 8 16 16 14 13 16 18 18 17 16 15 15 15 16 17 17 17 18 19 19 20 21 21 21 20
38 37 36 37 39 42 43 43 43 43 43 43 44 43 43 45 46 47 49 51 50 48 47 46 45 44 44 44 43 44 43 41 39 38 37 35 32 29 27 26 23 22 20 18 16 15 13 12 11 8 2 4 5 5 4 4 2 2 2 1 5 11 14 13 10 10 13 16 17 18 16 15 15 15 15 15 16 17 18 19 20 21 22 22 22
36 36 36 37 39 41 42 42 42 42 43 44 43 43 43 44 45 46 48 49 49 48 46 45 43 43 43 43 43 44 43 40 39 39 39 36 31 26 23 22 21 21 19 15 13 14 14 14 13 6 2 5 4 4 3 2 1 1 2 3 4 7 11 13 11 8 9 12 15 15 14 13 13 13 13 14 15 17 19 20 20 21 22 23 23
36 37 38 39 40 41 41 41 42 42 43 44 43 42 43 44 44 45 45 46 47 46 45 44 42 42 42 42 42 43 42 40 39 39 38 37 34 28 22 17 15 17 16 13 11 12 13 13 12 5 4 4 3 4 4 2 1 2 1 3 5 6 8 10 10 9 9 10 12 13 12 13 14 14 15 16 17 18 20 21 22 23 23 23 24
Wind_Direction
75 63 44 22 10 4 357 355 354 353 353 355 358 357 356 355 353 352 350 348 345 338 330 326 323 322 320 318 316 316 313 311 309 308 307 306 304 303 301 299 298 297 296 296 295 294 295 295 295 297 298 297 296 295 292 287 281 278 275 271 270 272 274 277 278 279 277 276 282 284 286 291 297 303 307 311 314 311 299 299 309 314 314 312 305
78 60 39 25 17 6 356 356 355 345 344 352 357 355 355 354 352 351 350 348 347 342 334 328 325 322 320 320 319 316 313 311 309 307 306 304 303 303 302 300 299 298 297 296 294 293 293 292 291 292 294 292 291 291 289 286 280 276 272 268 266 266 270 273 272 269 266 271 280 284 287 290 288 295 305 304 301 290 278 288 303 310 311 313 310
69 48 32 27 21 9 355 351 349 341 343 349 350 351 352 352 351 349 348 347 345 343 337 332 327 323 319 319 318 314 312 309 305 301 299 299 301 302 302 301 300 300 298 296 294 293 292 290 289 288 289 289 287 286 285 284 281 276 271 269 267 265 266 268 263 257 257 264 272 277 284 291 292 299 281 246 255 259 263 281 294 298 302 307 309
60 40 29 24 14 9 1 348 348 351 347 341 345 350 350 350 349 347 346 345 343 342 340 335 331 326 321 319 317 313 312 310 306 301 297 298 300 301 301 302 302 300 299 297 295 293 292 289 287 285 286 287 285 283 282 282 281 277 272 268 267 265 264 264 258 251 251 255 260 261 267 280 289 283 221 219 236 252 264 276 283 287 295 300 303
54 36 27 19 11 8 3 353 353 354 341 336 345 349 348 347 346 345 344 342 341 341 341 339 335 332 327 325 323 319 318 316 314 313 310 306 304 303 303 302 301 300 299 298 296 295 293 289 285 283 283 284 284 282 280 279 279 276 271 267 264 264 263 262 256 247 243 243 246 250 255 263 261 254 257 256 252 255 262 270 277 283 291 296 299
46 34 22 13 9 5 1 359 357 353 339 338 345 347 347 346 344 343 342 339 338 339 339 339 338 338 335 331 329 325 323 322 320 319 317 313 310 307 305 303 301 300 298 298 298 296 294 290 286 282 281 282 282 281 278 276 275 274 270 265 262 262 260 257 254 247 240 238 242 249 254 256 258 263 275 277 269 267 267 270 278 282 287 293 297
39 30 17 10 7 3 1 0 359 352 336 339 344 344 343 342 342 342 339 336 335 335 336 337 336 336 337 336 336 332 328 329 329 324 320 317 311 307 304 302 301 300 298 297 298 297 294 291 286 283 282 281 280 279 277 275 273 272 268 263 260 258 254 252 252 249 243 241 243 250 255 257 261 264 267 273 279 281 276 272 279 286 290 292 295
33 22 10 7 4 1 360 356 356 347 335 341 343 340 340 340 340 339 338 335 332 332 333 334 332 331 331 332 335 337 334 335 337 333 330 326 319 313 306 301 299 299 298 297 296 296 293 290 287 285 283 282 279 277 277 275 271 268 266 262 257 254 251 250 251 248 245 245 244 248 255 258 261 262 264 268 274 278 281 284 288 291 290 289 294
30 15 5 3 0 357 354 349 348 340 337 345 343 340 342 342 339 337 336 333 328 328 329 329 328 326 327 327 327 331 333 334 335 334 334 332 327 324 315 304 298 296 296 296 296 294 292 289 288 286 284 283 280 277 275 273 270 266 264 261 256 252 250 249 249 247 246 246 244 243 247 253 259 262 264 265 264 269 280 288 291 292 290 290 292
24 11 3 359 357 354 348 341 340 333 337 346 345 344 345 343 340 335 333 331 328 329 330 329 326 321 321 322 322 325 328 329 329 329 331 330 326 325 320 309 301 297 295 294 293 292 290 287 286 286 285 283 280 276 274 272 269 266 263 260 256 252 250 247 247 247 245 245 244 242 239 240 247 252 255 257 259 262 270 280 287 291 290 287 285
17 8 2 358 356 355 350 342 338 331 337 346 346 343 342 339 337 333 331 332 330 329 330 329 327 322 319 318 317 320 322 323 324 324 325 325 323 322 320 312 303 297 294 291 290 289 287 284 284 285 284 281 279 276 273 272 269 265 262 258 254 251 249 248 246 245 244 244 244 242 240 238 239 245 252 256 259 261 266 273 281 282 277 278 282
15 7 1 360 357 355 351 343 338 331 337 345 341 336 335 334 334 331 329 330 328 328 329 328 326 323 321 318 316 317 318 317 317 318 320 321 321 321 319 315 307 300 292 287 285 286 284 282 280 282 282 281 279 276 274 272 268 264 260 257 254 250 248 247 246 245 243 244 244 243 243 241 240 242 247 250 253 258 262 265 269 271 273 278 285
13 5 0 0 357 353 351 345 342 339 340 342 336 333 333 333 333 330 328 329 327 327 329 327 323 320 319 318 317 316 314 313 312 313 315 317 318 319 317 315 310 303 295 287 284 283 282 280 279 280 282 282 280 277 274 271 267 263 259 256 253 250 248 247 246 246 245 244 246 246 244 244 244 244 244 243 244 249 253 257 262 268 273 280 285
6 2 1 359 355 355 357 355 352 348 344 339 334 334 334 333 333 329 327 327 324 322 324 323 319 317 315 313 314 314 312 311 310 310 311 312 313 314 315 313 308 304 299 291 286 283 281 279 278 279 281 280 277 274 272 269 264 261 257 254 252 250 248 247 246 246 246 245 246 247 246 245 246 246 245 244 244 245 249 255 261 267 272 278 283
2 2 359 355 354 358 2 359 353 349 345 340 336 335 334 332 331 328 325 323 319 317 317 316 315 314 311 308 308 310 309 308 308 307 307 308 309 310 311 311 307 303 301 295 288 284 281 278 276 276 278 277 274 272 269 265 262 258 254 250 248 248 247 246 246 246 245 245 245 246 248 247 245 246 247 245 245 245 248 253 257 262 269 274 280
2 358 353 353 356 358 356 351 348 346 344 340 337 335 333 331 329 326 324 322 320 318 315 314 312 311 310 307 307 308 307 307 306 304 303 304 306 306 306 307 305 303 303 299 291 287 284 280 276 276 275 273 270 268 265 262 259 255 251 248 245 244 244 245 245 245 245 245 245 246 248 248 247 246 247 247 245 244 246 249 251 253 261 270 279
359 353 352 357 357 353 350 348 346 345 342 340 337 335 333 330 327 325 324 322 321 319 316 313 311 309 308 306 305 303 303 304 304 302 300 300 301 302 302 304 303 301 302 301 296 291 287 281 277 275 273 269 265 263 261 259 255 252 249 247 244 241 241 242 244 244 245 246 245 246 247 248 249 247 247 248 247 245 245 246 247 247 252 261 270
354 354 357 356 350 348 348 347 346 345 343 340 337 334 331 328 326 325 324 322 321 319 315 311 309 307 307 305 301 299 300 302 304 302 300 299 300 300 299 299 299 297 297 299 299 296 290 283 278 274 270 266 261 257 256 254 250 248 247 246 244 241 239 240 242 243 244 246 247 247 246 247 248 247 248 248 248 247 246 246 246 246 247 251 258
353 357 354 349 348 349 348 346 346 345 342 338 335 332 330 328 327 325 322 321 320 319 316 312 309 309 311 308 303 300 301 303 306 304 301 301 302 300 296 295 296 296 296 298 299 298 294 286 280 274 269 263 257 252 250 250 247 245 245 245 243 241 240 239 240 240 241 243 245 247 247 247 247 247 248 248 247 247 247 246 247 246 247 251 255
351 350 347 348 350 349 346 345 344 342 339 336 333 331 329 328 327 325 322 320 319 320 318 314 312 312 312 310 306 304 302 303 306 305 302 301 301 299 295 293 295 298 299 299 300 299 296 290 282 275 269 261 255 250 247 246 245 244 243 244 243 242 240 240 239 239 239 239 241 245 247 248 248 248 248 248 247 246 246 246 248 249 249 251 255
346 345 346 348 349 347 345 343 340 337 335 334 333 331 328 326 326 325 321 319 320 320 319 315 313 312 311 310 307 303 301 302 303 302 300 299 298 296 292 290 292 298 301 301 301 299 296 291 282 275 269 261 255 251 246 244 243 243 243 244 244 242 240 240 240 239 239 239 240 242 245 248 249 249 249 249 248 246 245 246 247 249 250 250 251
339 343 346 348 346 344 341 337 335 334 333 333 332 329 326 324 325 324 321 320 320 320 319 316 313 312 311 309 305 302 303 304 303 302 300 299 298 294 289 285 286 296 301 301 301 300 296 289 281 274 267 260 255 250 246 243 242 243 244 244 243 241 240 240 240 241 242 241 241 241 243 245 246 247 248 247 248 248 247 247 247 248 251 251 252
334 341 344 344 342 340 337 335 334 333 332 332 331 329 326 324 324 325 323 322 321 320 318 316 314 313 312 310 306 305 306 306 305 304 303 302 298 292 286 281 282 294 302 301 302 302 295 287 280 273 265 258 254 249 244 242 242 243 244 244 242 240 238 238 239 240 241 240 240 241 242 243 243 244 245 244 246 248 248 249 248 249 252 255 255
337 342 342 341 340 339 338 336 334 332 331 330 329 328 327 325 325 326 325 322 321 320 319 318 316 314 314 312 310 310 309 308 307 306 305 303 298 291 285 281 284 296 302 302 305 302 293 285 277 270 263 256 252 248 242 241 243 244 245 246 243 240 239 238 238 239 239 238 238 239 241 242 241 241 243 243 242 244 246 247 250 251 254 255 253
342 342 340 339 338 339 340 337 334 332 329 328 328 328 327 326 325 325 324 322 322 322 320 318 316 315 314 314 313 312 311 310 309 309 307 303 298 294 290 288 293 301 303 304 305 302 293 284 275 268 261 256 252 247 242 241 243 244 246 247 244 240 239 238 237 237 237 236 235 236 238 240 242 242 243 243 242 241 243 244 248 251 253 253 248
342 340 340 338 338 339 339 336 333 330 328 328 327 327 327 326 324 322 324 325 324 323 320 317 316 316 315 315 314 314 313 312 311 310 306 303 302 300 298 298 302 304 305 306 305 301 294 285 275 266 260 255 251 247 242 241 243 245 246 247 243 240 239 239 238 237 235 235 234 234 234 236 239 242 243 243 242 240 240 242 246 249 250 249 247
340 339 339 337 337 338 337 335 333 330 328 327 327 326 327 326 324 324 326 327 324 323 320 318 318 319 318 318 318 318 317 316 313 309 306 308 309 308 303 301 303 305 307 309 305 300 295 285 274 265 258 254 250 246 243 242 243 245 248 248 244 241 240 238 237 237 236 235 234 232 231 231 233 238 242 242 241 239 240 242 245 246 244 243 244
340 340 337 337 337 338 336 334 333 331 328 327 327 328 328 326 326 326 327 326 325 324 322 322 322 321 320 320 318 316 315 315 315 312 311 312 311 306 300 298 303 308 310 310 307 301 293 283 273 264 257 252 247 244 243 243 245 248 250 250 247 243 240 238 237 237 236 235 233 231 230 228 229 233 238 241 240 238 238 241 244 245 244 241 240
340 337 337 338 338 337 336 334 333 330 328 329 330 329 328 327 327 328 326 326 326 325 324 323 322 321 321 317 313 312 314 314 313 313 312 311 307 301 295 297 306 312 312 312 308 300 289 279 272 263 255 251 247 244 244 245 248 251 252 252 250 245 241 237 235 235 234 234 233 231 230 230 229 231 235 239 239 237 238 240 243 247 249 245 239
338 337 338 339 337 337 336 333 331 331 331 331 330 329 328 328 330 329 326 326 327 326 324 323 322 321 319 315 312 312 313 312 312 313 314 313 309 304 302 305 309 311 314 314 309 298 285 275 269 261 254 250 247 246 247 248 250 253 255 255 251 245 239 235 234 235 235 236 238 236 234 231 231 232 234 236 237 236 236 239 244 249 249 244 238
339 339 338 339 338 336 335 333 332 331 331 330 329 329 330 331 330 327 325 327 328 327 325 324 323 321 316 313 312 311 309 306 305 306 305 304 305 305 305 306 307 308 312 314 309 298 284 273 267 260 253 251 249 249 251 251 250 252 255 257 252 243 236 234 235 237 237 238 241 242 240 234 231 232 234 235 236 235 235 238 243 242 236 235 236
342 341 339 338 336 334 334 333 332 331 330 331 331 332 333 330 326 325 326 329 331 329 327 327 324 317 311 310 309 308 306 303 302 303 302 300 299 299 299 301 303 305 308 310 309 300 285 274 267 259 253 251 251 253 254 252 250 248 248 250 250 244 238 238 240 240 241 240 240 242 245 242 236 233 235 236 233 231 232 235 237 233 228 233 239
341 339 338 336 334 334 333 331 330 329 329 332 335 334 330 325 324 327 331 333 332 327 321 319 316 312 309 309 309 309 309 310 311 311 308 305 303 301 300 299 300 302 303 304 305 299 285 274 267 259 254 253 254 256 256 251 251 251 245 243 246 248 246 247 248 248 248 246 241 240 244 246 243 236 233 234 230 226 227 228 226 226 230 236 242
337 337 336 334 333 332 331 331 330 329 331 335 336 330 325 325 328 332 333 331 326 320 317 317 317 316 316 316 315 316 318 320 321 317 310 308 310 309 305 301 301 302 301 299 299 295 284 274 267 260 257 256 257 258 257 253 252 253 246 238 243 250 252 253 255 256 257 255 250 245 242 242 245 241 232 228 225 222 221 220 217 220 229 234 237
337 338 335 332 332 331 331 332 330 331 334 335 331 327 327 330 333 332 329 326 321 320 321 322 322 323 325 324 322 321 321 321 320 316 312 313 316 315 310 306 306 306 301 297 296 292 282 274 267 262 259 258 259 259 258 257 254 250 242 236 240 248 252 254 255 256 259 260 257 253 247 241 241 241 232 225 222 219 217 217 218 221 227 231 233
337 336 333 330 331 331 332 331 329 333 336 332 329 329 330 333 333 328 325 325 324 325 326 325 323 325 329 329 326 323 322 322 321 320 319 318 318 316 311 307 308 309 304 299 296 290 282 274 267 262 259 260 261 259 260 261 256 245 237 233 234 241 248 252 254 254 256 258 258 255 252 246 238 233 229 224 221 218 215 217 223 227 229 232 234
333 333 332 330 329 330 331 330 330 333 333 331 330 331 332 331 329 326 326 328 329 328 328 326 325 327 330 331 328 325 324 324 324 323 321 318 317 315 311 310 313 312 307 302 297 290 282 274 267 262 260 261 263 262 262 262 254 242 236 234 232 234 239 244 250 253 254 256 256 254 253 250 238 227 223 221 218 218 217 219 225 232 234 236 239
331 332 333 332 330 331 331 331 333 333 334 334 333 333 333 330 327 328 330 331 331 330 329 329 329 330 330 330 329 328 326 325 324 322 321 320 320 320 320 321 319 311 305 304 299 288 279 273 268 264 263 265 267 266 265 263 253 240 236 236 236 236 237 239 242 246 249 254 257 254 250 249 240 225 218 215 213 216 219 222 227 230 231 234 237
331 334 335 333 333 334 334 334 336 337 338 337 335 334 334 330 327 331 333 333 333 331 331 331 330 330 331 330 330 329 327 325 324 323 323 323 323 324 325 324 318 309 304 304 298 284 275 273 269 267 267 268 269 270 269 265 255 242 235 235 238 240 241 241 240 238 238 242 247 244 237 237 237 227 214 208 208 214 220 225 228 226 225 230 231
332 336 337 336 336 337 337 338 339 340 340 339 339 338 335 330 330 333 336 336 334 332 331 331 330 330 331 331 331 329 327 327 326 325 326 326 325 327 326 322 317 311 305 303 296 282 275 273 270 270 270 271 272 275 274 267 255 244 236 234 237 240 241 241 240 237 234 234 236 238 236 233 232 229 218 208 207 212 219 225 229 227 228 229 225
335 339 339 337 338 338 338 338 340 342 342 342 342 341 336 331 332 336 337 336 334 333 333 332 332 332 332 333 332 331 329 329 329 330 330 329 329 329 325 322 319 313 304 301 294 281 275 273 272 273 274 275 278 280 278 270 257 248 240 234 236 241 242 239 236 235 235 235 236 241 245 239 228 225 223 215 206 206 214 224 230 233 234 231 224
338 342 341 339 338 338 338 339 340 342 343 344 345 342 336 333 334 336 337 336 334 335 335 334 333 333 334 335 334 334 333 333 334 335 333 330 331 328 323 322 321 313 304 299 291 282 277 275 276 277 278 280 283 285 282 273 262 256 248 235 232 238 241 237 234 233 232 234 236 241 248 247 225 219 222 220 211 205 212 223 230 234 239 238 233
340 342 341 340 338 338 339 338 338 342 345 347 346 342 338 335 335 337 337 336 337 338 336 335 336 335 336 337 337 338 339 338 338 337 333 331 331 326 322 324 322 313 306 299 290 284 280 278 280 281 282 286 289 288 285 279 270 262 252 235 228 231 232 231 235 236 232 231 232 229 232 235 222 216 219 220 213 208 212 223 229 233 237 238 236
341 341 341 340 338 338 339 338 339 343 346 348 348 342 338 337 338 339 339 339 339 340 338 338 338 337 338 340 341 341 342 341 339 337 334 333 332 325 321 325 323 315 310 303 294 290 286 284 285 286 288 293 294 291 289 284 275 263 247 230 222 222 222 224 236 239 225 218 221 223 227 230 222 217 219 218 215 215 219 223 224 226 228 228 230
341 340 341 340 338 340 340 339 341 345 347 349 348 343 338 339 341 342 342 341 341 341 340 340 340 340 341 343 343 343 343 341 340 338 335 335 332 324 321 325 322 314 311 307 299 295 293 292 293 295 298 301 300 300 299 286 269 257 240 222 215 215 217 219 229 235 212 207 219 231 232 225 212 209 211 212 213 217 218 217 217 219 221 224 231
340 340 341 340 340 341 341 341 343 346 348 349 348 343 340 341 344 345 344 343 343 342 341 341 342 342 344 344 344 343 342 340 340 340 338 336 332 325 322 324 320 312 311 310 304 298 297 297 299 302 306 310 312 309 304 288 263 251 236 217 210 212 216 217 223 235 227 214 220 228 224 215 207 207 211 212 210 209 210 211 215 221 227 234 241
339 340 340 340 340 341 342 343 344 347 349 350 348 346 344 344 346 347 346 345 344 343 342 343 344 344 345 346 345 343 341 340 342 342 340 336 332 327 324 324 321 313 308 308 306 303 302 302 303 306 311 317 325 319 307 339 316 246 225 214 206 204 208 213 219 228 228 216 211 214 214 214 212 212 218 224 225 225 227 227 228 232 238 242 244
339 340 341 341 340 341 343 344 345 347 349 349 348 347 347 347 348 349 347 346 345 344 343 344 345 345 346 346 345 342 340 341 343 343 338 333 332 330 327 325 322 314 307 306 307 308 311 310 306 309 323 351 14 21 50 52 50 94 95 145 196 193 196 204 213 224 227 222 219 217 215 214 213 212 217 222 224 228 232 234 234 235 236 236 235
340 341 341 339 339 342 344 344 346 347 349 349 348 348 349 349 350 350 348 347 345 344 345 346 347 347 347 347 345 342 341 342 343 341 336 334 335 333 328 325 323 318 314 312 309 309 320 330 323 311 327 79 57 31 37 43 49 103 112 140 187 189 191 189 190 209 217 212 209 207 204 201 201 202 207 213 217 220 224 226 227 229 232 235 238
342 341 341 340 340 342 344 345 346 348 349 349 349 349 350 351 351 351 350 348 347 345 346 348 349 349 348 347 343 342 343 344 343 340 339 340 340 338 335 331 327 324 320 315 309 304 311 330 339 335 144 122 83 55 39 355 277 199 206 208 193 196 200 194 188 197 200 191 189 192 193 194 199 206 216 225 231 234 234 234 234 235 237 241 244
343 343 343 343 344 345 345 346 348 348 348 349 350 351 351 350 351 351 351 350 349 347 347 348 350 349 348 345 343 343 344 345 343 342 344 344 344 346 350 348 339 332 324 311 303 301 298 306 322 341 121 123 104 106 89 10 294 152 170 217 203 199 202 203 207 217 218 211 211 216 221 224 228 231 232 232 233 235 238 241 243 244 245 248 250